[[{"header":{"parameterUnit":"m.s-1","parameterCategory":1,"la1":30.2991,"la2":30.254,"lo1":-89.0895,"lo2":-89.0444,"dy":0.0017,"dx":0.0017,"nx":28,"ny":28,"refTime":"2025-08-15T03:00:00:Z","depth":0,"parameterNumber":2,"parameterNumberName":"U-component_of_WINDS"},"data":[0,0,0,0,0,0,0,0,0,0,0,0,0,0,0,0,0,0,0,0,0,0,0,0,0,0,0,0,0,0,0,0,0,0,0,0,0,0,0,0,0,0,0,0,0,0,0,0,0,0,0,0,0,0,0,0,0,0,2.3751,2.3752,0,2.3869,2.3871,2.3872,2.3873,2.3872,2.387,2.3869,2.3988,2.3992,2.3997,0,0,0,0,0,0,0,0,0,0,0,0,0,2.3523,2.3527,2.375,2.3752,2.3754,2.3869,2.3871,2.3872,2.3874,2.3872,2.387,2.3868,2.3986,2.3992,2.3997,0,0,0,0,0,0,0,0,0,0,0,0,0,2.3629,2.3528,2.375,2.3768,2.3771,2.3869,2.3871,2.3873,2.3874,2.3872,2.387,2.3868,2.3984,2.3991,2.3998,2.4085,0,0,2.4019,2.4022,0,0,0,0,0,0,0,0,2.3623,2.3638,2.3764,2.3767,2.377,2.3854,2.3834,2.3944,2.3875,2.3835,2.3869,2.3866,2.3945,2.3955,2.3982,2.409,2.4095,2.4019,2.4023,2.4026,2.4028,0,0,0,0,0,0,0,2.3616,2.3633,2.3797,2.3766,2.377,2.377,2.3782,2.3855,2.3901,2.3838,2.3839,2.3853,2.3946,2.3975,2.3985,2.4097,2.4019,2.4025,2.4029,2.4032,2.4283,2.4285,0,0,0,0,0,0,2.3605,2.3627,2.3794,2.3801,2.369,2.3775,2.379,2.383,2.39,2.3909,2.3855,2.3852,2.3965,2.3977,2.3989,2.4095,2.4026,2.4033,2.4037,2.428,2.4283,2.4286,0,0,0,0,0,0,2.36,2.362,2.3789,2.3714,2.3735,2.3782,2.3827,2.3833,2.3862,2.3913,2.3921,2.3876,2.3964,2.3979,2.4061,2.4099,2.4036,2.4042,2.4277,2.4281,2.4285,2.4308,0,0,0,0,0,0,2.3594,2.3619,2.3652,2.3715,2.3739,2.386,2.3829,2.3837,2.3874,2.3873,2.3935,2.3943,2.3963,2.4051,2.4068,2.4107,2.4047,2.4274,2.4279,2.4283,2.4304,2.4312,2.4319,0,0,0,0,0,2.3586,2.3654,2.3654,2.3674,2.3783,2.3862,2.3876,2.3898,2.3877,2.3912,2.3944,2.3941,2.4093,2.4059,2.4078,2.4121,2.4271,2.4277,2.4283,2.4301,2.4311,2.4319,0,0,0,0,0,0,2.3593,2.3662,2.3663,2.3754,2.3802,2.3862,2.3906,2.3908,2.3963,2.3959,2.3984,2.3998,2.4079,2.4108,2.407,2.4208,2.4179,2.4189,2.4186,2.4196,2.4204,2.4194,2.4053,0,0,0,0,0,2.3606,2.3665,2.3721,2.3796,2.382,2.3859,2.3894,2.3907,2.3958,2.3978,2.4017,2.4065,2.4124,2.4162,2.4219,2.4309,2.4322,2.4347,2.4355,2.4361,2.4369,2.4419,2.443,2.4305,2.4305,2.4305,0,0,2.3631,2.3676,2.3712,2.3798,2.3837,2.3897,2.3876,2.394,2.3985,2.3988,2.4067,2.4097,2.4153,2.424,2.428,2.4266,2.4407,2.4368,2.4373,2.4377,2.4426,2.4437,2.4448,2.4309,2.4308,2.4308,0,0,2.3708,2.3749,2.3815,2.3855,2.3915,2.3941,2.3957,2.4017,2.4037,2.4118,2.4121,2.4174,2.4275,2.4315,2.4348,2.4442,2.4441,2.446,2.4499,2.4547,2.4557,2.4566,2.4599,2.461,2.4468,2.4468,2.4468,0,2.3732,2.3824,2.3848,2.3913,2.3951,2.3958,2.4025,2.4062,2.4137,2.4163,2.4147,2.4274,2.4312,2.4408,2.4431,2.4458,2.4476,2.4452,2.4554,2.4563,2.4571,2.4603,2.4615,2.4469,2.4469,2.4469,2.4469,0,2.385,2.3913,2.3959,2.4033,2.4076,2.4141,2.4175,2.4216,2.4226,2.4253,2.4335,2.4381,2.4448,2.4472,2.4482,2.4569,2.4559,2.4549,2.452,2.4585,2.4615,2.4627,2.4472,2.4471,2.4471,2.447,0,0,2.3933,2.4021,2.4037,2.4071,2.4138,2.4187,2.4253,2.4319,2.4353,2.4405,2.446,2.4546,2.4537,2.4575,2.459,2.4632,2.4703,2.4616,2.4618,2.463,2.4802,2.4809,2.4822,2.4703,2.4706,2.4708,2.4797,0,2.4017,2.4135,2.416,2.4261,2.432,2.4328,2.4386,2.4433,2.446,2.4513,2.4543,2.4603,2.4587,2.461,2.4653,2.4685,2.4738,2.4679,2.4754,2.4756,2.4739,2.4838,2.4846,2.4927,2.4809,2.4811,2.4812,0,2.413,2.4186,2.4294,2.4354,2.438,2.4431,2.4494,2.4545,2.4599,2.4615,2.4659,2.4669,2.4737,2.4706,2.48,2.476,2.4792,2.4813,2.4817,2.4823,2.4787,2.4847,2.4954,2.4966,2.4831,2.483,2.4828,0,2.4179,2.4282,2.436,2.4388,2.4461,2.4496,2.4528,2.458,2.4618,2.4673,2.4698,2.4759,2.4793,2.484,2.4867,2.4842,2.4958,2.493,2.4974,2.4973,2.4997,2.4995,2.511,2.5019,2.5019,2.5019,2.5018,0,2.427,2.4335,2.4383,2.4431,2.4504,2.4532,2.4604,2.4635,2.4681,2.4735,2.4746,2.4795,2.4828,2.4882,2.4903,2.4978,2.4993,2.5008,2.5012,2.5006,2.5004,2.5027,2.5022,2.5022,2.5021,2.5021,2.502,0,2.4336,2.4371,2.4457,2.4519,2.4536,2.4587,2.464,2.4687,2.4715,2.4782,2.48,2.4843,2.4908,2.494,2.5019,2.5034,2.5118,2.5119,2.51,2.5101,2.5143,2.5139,2.5276,2.5295,2.5193,2.5194,2.5194,0,2.4391,2.4442,2.451,2.4548,2.4581,2.464,2.468,2.4709,2.475,2.4816,2.4854,2.4919,2.4973,2.5076,2.5114,2.5175,2.5178,2.5222,2.5187,2.5179,2.5178,2.5174,2.5179,2.5227,2.5228,2.5229,2.523,0,2.4485,2.45,2.4557,2.4621,2.4668,2.4719,2.477,2.4799,2.4837,2.4882,2.4949,2.4991,2.5073,2.5137,2.5202,2.5233,2.5238,2.5241,2.5254,2.5248,2.5234,2.5242,2.5116,2.5237,2.5236,2.5236,2.5236,2.5235,2.4547,2.4593,2.4648,2.4712,2.4753,2.48,2.4847,2.4882,2.4938,2.5008,2.5022,2.5093,2.5146,2.5233,2.5267,2.5322,2.5312,2.5331,2.5336,2.534,2.5342,2.5227,2.5334,2.5333,2.5333,2.5333,2.5333,0,2.464,2.4677,2.4735,2.4806,2.4856,2.4858,2.4914,2.4955,2.5018,2.5067,2.512,2.5197,2.526,2.5304,2.5368,2.5404,2.5407,2.5419,2.5416,2.5423,2.5347,2.5329,2.5415,2.5415,2.5415,2.5415,2.5415,2.5415,2.4695,2.4772,2.4794,2.4892,2.4928,2.4998,2.503,2.5073,2.5113,2.5199,2.5252,2.528,2.5328,2.5395,2.5453,2.5464,2.5487,2.5499,2.551,2.5437,2.5429,2.542,2.5403,2.5504,2.5504,2.5581,2.5582,2.5582]},{"header":{"parameterUnit":"m.s-1","parameterCategory":1,"la1":30.2991,"la2":30.254,"lo1":-89.0895,"lo2":-89.0444,"dy":0.0017,"dx":0.0017,"nx":28,"ny":28,"refTime":"2025-08-15T03:00:00:Z","depth":0,"parameterNumber":3,"parameterNumberName":"V-component_of_WINDS"},"data":[0,0,0,0,0,0,0,0,0,0,0,0,0,0,0,0,0,0,0,0,0,0,0,0,0,0,0,0,0,0,0,0,0,0,0,0,0,0,0,0,0,0,0,0,0,0,0,0,0,0,0,0,0,0,0,0,0,0,2.9403,2.9403,0,2.9402,2.9402,2.9402,2.9345,2.9344,2.9342,2.9341,2.934,2.9341,2.9343,0,0,0,0,0,0,0,0,0,0,0,0,0,2.9352,2.9354,2.9403,2.9403,2.9403,2.9402,2.9402,2.9402,2.9346,2.9344,2.9342,2.934,2.934,2.9341,2.9343,0,0,0,0,0,0,0,0,0,0,0,0,0,2.9365,2.9354,2.9403,2.9374,2.9372,2.9402,2.9402,2.9402,2.9346,2.9344,2.9341,2.9339,2.9339,2.9341,2.9343,2.9401,0,0,2.9349,2.935,0,0,0,0,0,0,0,0,2.9365,2.9367,2.9378,2.9376,2.9373,2.9372,2.9384,2.9402,2.9347,2.9356,2.9341,2.9338,2.9352,2.9353,2.9358,2.9401,2.9401,2.935,2.9351,2.9352,2.9352,0,0,0,0,0,0,0,2.9364,2.9367,2.9402,2.9379,2.9376,2.9361,2.936,2.9387,2.9367,2.9355,2.9351,2.9351,2.9351,2.9356,2.9358,2.9401,2.935,2.9351,2.9353,2.9353,2.9491,2.9493,0,0,0,0,0,0,2.9367,2.9367,2.9402,2.9402,2.9364,2.9364,2.9363,2.9374,2.9366,2.9363,2.9353,2.9349,2.9354,2.9355,2.9357,2.9424,2.9352,2.9354,2.9355,2.9488,2.9491,2.9494,0,0,0,0,0,0,2.9366,2.9371,2.9402,2.9383,2.9386,2.9367,2.938,2.9376,2.9381,2.9365,2.9361,2.9363,2.9352,2.9354,2.939,2.9423,2.9355,2.9356,2.9485,2.9489,2.9492,2.9559,0,0,0,0,0,0,2.9365,2.9371,2.9393,2.9384,2.9388,2.9436,2.9382,2.9377,2.9385,2.9379,2.9373,2.937,2.935,2.9388,2.9393,2.9425,2.9358,2.9482,2.9487,2.9491,2.9553,2.9564,2.9573,0,0,0,0,0,2.9363,2.9411,2.9394,2.9399,2.9415,2.9438,2.944,2.9417,2.9388,2.941,2.9399,2.937,2.9419,2.9392,2.9397,2.943,2.948,2.9486,2.9491,2.9549,2.9562,2.9573,0,0,0,0,0,0,2.9424,2.941,2.9391,2.9437,2.9439,2.9428,2.9455,2.9431,2.9441,2.9435,2.9406,2.9405,2.9446,2.9441,2.9411,2.9486,2.9444,2.9451,2.9487,2.9499,2.9509,2.9509,2.936,0,0,0,0,0,2.9443,2.9463,2.9449,2.9492,2.9494,2.9475,2.9484,2.9466,2.9467,2.9467,2.9459,2.9461,2.9477,2.9488,2.9501,2.9553,2.955,2.9578,2.9588,2.9596,2.9602,2.9629,2.9641,2.9511,2.9511,2.9511,0,0,2.9481,2.9476,2.9491,2.9504,2.9503,2.9525,2.9476,2.95,2.9516,2.9471,2.9504,2.9499,2.9499,2.9543,2.9562,2.9541,2.9638,2.9603,2.961,2.9611,2.9636,2.9648,2.9659,2.9515,2.9514,2.9514,0,0,2.9563,2.9562,2.9597,2.9597,2.9597,2.9584,2.9593,2.9586,2.958,2.9613,2.958,2.9598,2.9626,2.9627,2.9631,2.9714,2.9688,2.9719,2.9771,2.9797,2.9808,2.9816,2.9846,2.9857,2.9725,2.9726,2.9726,0,2.9612,2.9643,2.9618,2.9645,2.9652,2.9612,2.9647,2.9649,2.9653,2.9659,2.9635,2.9669,2.9666,2.971,2.973,2.9735,2.9744,2.972,2.9808,2.9817,2.9825,2.9853,2.9864,2.9729,2.9729,2.9729,2.9728,0,2.9702,2.9725,2.9753,2.9759,2.9768,2.9799,2.9779,2.9792,2.9773,2.9762,2.9796,2.9792,2.9804,2.9813,2.9795,2.9854,2.9841,2.9813,2.9771,2.9841,2.9867,2.9877,2.9735,2.9733,2.9732,2.9731,0,0,2.9822,2.9813,2.9824,2.9826,2.9824,2.984,2.9869,2.9881,2.9893,2.9897,2.9921,2.9945,2.992,2.9925,2.9906,2.993,2.9996,2.9899,2.9899,2.9917,3.0061,3.0082,3.0094,2.9978,2.998,2.9982,3.0061,0,2.9901,2.9951,2.9929,2.9981,3.0001,2.9964,2.9989,2.999,2.9981,2.9997,2.9986,3.0004,2.9969,2.9972,2.9993,2.9983,3.0024,2.9977,3.0,3.0001,3.0001,3.0108,3.013,3.0205,3.0071,3.0072,3.0073,0,3.0,3.0009,3.0063,3.0057,3.0064,3.0088,3.0097,3.0112,3.0113,3.0104,3.011,3.0087,3.0114,3.0073,3.0111,3.008,3.0087,3.0084,3.0086,3.0087,3.0041,3.0112,3.0228,3.0239,3.0089,3.0088,3.0087,0,3.0082,3.0108,3.0143,3.0146,3.0139,3.0157,3.0155,3.0153,3.0161,3.0169,3.0175,3.0186,3.0192,3.0201,3.0181,3.0153,3.0222,3.0179,3.0216,3.0216,3.0232,3.0231,3.0351,3.0237,3.0237,3.0237,3.0237,0,3.0173,3.0207,3.018,3.0202,3.0239,3.0214,3.0251,3.0245,3.0244,3.0264,3.0232,3.0252,3.0224,3.024,3.0225,3.0259,3.0262,3.0256,3.0251,3.0259,3.0259,3.0263,3.0258,3.024,3.0239,3.0239,3.0238,0,3.027,3.0253,3.029,3.0281,3.0279,3.0307,3.0299,3.0319,3.0308,3.0333,3.0338,3.032,3.0338,3.0319,3.0335,3.0325,3.0371,3.0358,3.0371,3.0367,3.0405,3.0402,3.0532,3.0548,3.0424,3.0425,3.0426,0,3.0329,3.0355,3.0349,3.036,3.036,3.0379,3.0387,3.0363,3.0374,3.0376,3.0395,3.0411,3.0422,3.0452,3.044,3.0453,3.0441,3.0485,3.0442,3.0449,3.0441,3.044,3.0442,3.0494,3.0496,3.0497,3.0498,0,3.0436,3.0426,3.044,3.0451,3.0463,3.047,3.0475,3.0486,3.0461,3.0475,3.0493,3.0501,3.0518,3.0534,3.0543,3.054,3.0515,3.0511,3.0521,3.0528,3.0534,3.0532,3.0395,3.0508,3.0507,3.0507,3.0506,3.0506,3.0516,3.0537,3.0536,3.0553,3.0554,3.056,3.0578,3.0569,3.0584,3.0596,3.058,3.0603,3.0602,3.0612,3.0612,3.0629,3.061,3.0624,3.0627,3.0631,3.0637,3.0532,3.0631,3.0631,3.063,3.063,3.063,0,3.062,3.0618,3.0634,3.0642,3.0655,3.063,3.0635,3.0647,3.0667,3.0669,3.0681,3.0702,3.0717,3.0706,3.0719,3.0735,3.0723,3.0739,3.0737,3.0737,3.0653,3.0644,3.0748,3.0748,3.0748,3.0748,3.0748,3.0748,3.0676,3.0711,3.0701,3.0736,3.0733,3.0755,3.076,3.0765,3.0766,3.0791,3.0803,3.0797,3.0793,3.0806,3.0818,3.0815,3.0821,3.0841,3.0833,3.0755,3.0743,3.0732,3.0723,3.0842,3.0842,3.0916,3.0917,3.0917]}]]